STARLINK-1208, 45205

Orbit data source: Space-Track

STARLINK-1208, 45205 is a payload satellite owned by SpaceX/Seattle (US) in LEO that was launched on Mon, 17 Feb 2020 UTC via an FALCON 9 launch vehicle from the Air Force Eastern Test Range (AFETR). Payload-class satellites include a variety of spacecraft equipped with specific instruments for various scientific and technological missions. These include communications satellites like Starlink; space stations such as the ISS; scientific satellites like the Hubble; Earth observation satellites from companies like Planet Labs, Umbra, and HawkEye 360; GPS; miniature CubeSats for education and research; and military/defense satellites.

Loading next visibility...
Identifier
45205, 2020-012AD
Orbit
LEO
Country
Flag of USUS
Related business
Manufacturer
SpaceX/Seattle
Mission
Partially operational Commercial Communications
Bus & Motor
STARLINK, Unknown motor
Mass
260 kg wet, ~248 kg dry
Launch date (UTC)
2020-02-17 (6 years ago)
Launch vehicle
FALCON 9
Launch site
Air Force Eastern Test Range (AFETR)
Object type
Payload
Rocket body
Debris
Shape & HBR
Box + 1 Pan, 4.4 m
Radar Cross Section
13.562 m², Large (>1 m²)

Expand to show TLE details & history
Last TLE update: 10 hours ago

TLE from 10 hours ago
0 STARLINK-1208
1 45205U 20012AD  25258.83341435  .00455047  92932-4  12269-2 0  9990
2 45205  53.0386  40.8729 0001395  88.6850 285.0621 15.93810394  5952
Epoch: 2025-09-15T20:00Z
TLE epoch observation values (Epoch: 2025-09-15T20:00:06.999Z)
Latitude
10.92169°
Longitude
114.1128°
Altitude
291.537 km
Speed
7.735 km/s
True Right ascension
03h 16m 41s
True Declination
10° 51' 12"
Sunlit
Object was in full shadow at epoch
Visualization orbit readout
Latitude
Unknown
Longitude
Unknown
Altitude
Unknown
Speed
Unknown
Apparent Right ascension
Unknown
Apparent Declination
Unknown
Sunlit
N/A
Visualization observer readout
Local Sidereal Time
22:19:32
Azimuth
Unknown
Elevation
Unknown
Doppler factor
Unknown
Orbital elements
Apogee altitude
292.845 km
Perigee altitude
290.984 km
Semi-major axis
6,670.052 km
Eccentricity
0.00014
Inclination
53.0386°
RAAN
40.8729°
Arg. of periapsis
88.685°
True anomaly
285.04666°
Mean anomaly
285.0621°
Eccentric anomaly
285.05438°
Mean motion
3.98428 °/min
Orbital period
90.36 mins
BSTAR
0.0012269
Loading maneuver chart data...
Computing Atmospheric mass density...

Documentation

Showing up to 5 results
|